Weather History for Slayton, MN

Change the Weather History Date:

Sunday, October 27, 2013

  Actual Average (KOTG) Record (KOTG)
Temperature  
Mean Temperature 43 °F -  
Max Temperature 59 °F 49 °F 78 °F (1999)
Min Temperature 27 °F 33 °F 11 °F (1976)
Degree Days  
Heating Degree Days 22    
Moisture  
Dew Point 29 °F    
Average Humidity 64    
Maximum Humidity 90    
Minimum Humidity 34    
Precipitation  
Precipitation 0.00 in - - ()
Sea Level Pressure  
Sea Level Pressure 29.93 in    
Wind  
Wind Speed 11 mph (West)    
Max Wind Speed 20 mph    
Max Gust Speed 25 mph    
Visibility 10 miles    
Events      
Averages and records for this station are not official NWS values.
T = Trace of Precipitation, MM = Missing Value Source: NWS Daily Summary

Daily Weather History Graph

Daily Weather History Graph

Search for Another Location

Airport:

Trip Planner

Search our weather history database for the weather conditions in past years. The results will help you decide how hot, cold, wet, or windy it might be!

Date:

Astronomy

Oct. 27, 2013 Rise Set
Actual Time 7:53 AM CDT 6:19 PM CDT
Civil Twilight 7:23 AM CDT 6:49 PM CDT
Nautical Twilight 6:49 AM CDT 7:23 PM CDT
Astronomical Twilight 6:16 AM CDT 7:56 PM CDT
Moon 12:37 AM CDT (10/27) 2:42 PM CDT (10/27)
Length of Visible Light 11h 26m
Length of Day
10h 26m
Last Quarter, 43% of the Moon is Illuminated
Oct 27
Last Quarter
Nov 3
New
Nov 9
First Quarter
Nov 17
Full
Nov 25
Last Quarter

Hourly Weather History & Observations

Time (CDT) Temp. Windchill Dew Point Humidity Pressure Visibility Wind Dir Wind Speed Gust Speed Precip Events Conditions
12:14 AM 28.2 °F 19.5 °F 24.3 °F 85% 30.05 in 10.0 mi SSW 9.2 mph - N/A   Clear
12:33 AM 28.0 °F 20.0 °F 24.3 °F 86% 30.05 in 10.0 mi SSW 8.1 mph - N/A   Clear
12:53 AM 27.5 °F 20.2 °F 24.3 °F 88% 30.04 in 10.0 mi SSW 6.9 mph - N/A   Clear
1:13 AM 27.1 °F 18.2 °F 24.6 °F 90% 30.03 in 10.0 mi SSW 9.2 mph - N/A   Clear
1:33 AM 28.4 °F 19.1 °F 25.0 °F 87% 30.03 in 10.0 mi SSW 10.4 mph - N/A   Clear
1:53 AM 28.4 °F 20.4 °F 25.0 °F 87% 30.02 in 10.0 mi SSW 8.1 mph - N/A   Clear
2:13 AM 28.9 °F 19.2 °F 25.3 °F 86% 30.00 in 10.0 mi SSW 11.5 mph - N/A   Clear
2:34 AM 28.8 °F 18.4 °F 25.0 °F 86% 29.99 in 10.0 mi SSW 12.7 mph - N/A   Clear
2:53 AM 29.5 °F 20.4 °F 25.5 °F 85% 29.98 in 10.0 mi SSW 10.4 mph - N/A   Clear
3:14 AM 30.9 °F 21.2 °F 25.7 °F 81% 29.97 in 10.0 mi SSW 12.7 mph - N/A   Clear
3:33 AM 31.5 °F 21.4 °F 25.9 °F 80% 29.96 in 10.0 mi SSW 13.8 mph - N/A   Clear
3:54 AM 32.2 °F 23.2 °F 26.4 °F 79% 29.95 in 10.0 mi SSW 11.5 mph - N/A   Clear
4:13 AM 32.4 °F 22.5 °F 26.6 °F 79% 29.94 in 10.0 mi SSW 13.8 mph - N/A   Clear
4:34 AM 32.7 °F 23.4 °F 26.6 °F 78% 29.93 in 10.0 mi SSW 12.7 mph - N/A   Clear
4:53 AM 33.8 °F 23.2 °F 27.1 °F 77% 29.92 in 10.0 mi SW 17.3 mph - N/A   Clear
5:13 AM 33.6 °F 22.9 °F 27.0 °F 77% 29.92 in 10.0 mi SW 17.3 mph - N/A   Clear
5:33 AM 32.0 °F 22.1 °F 26.6 °F 80% 29.92 in 10.0 mi SSW 13.8 mph - N/A   Clear
5:53 AM 34.3 °F 23.2 °F 26.6 °F 73% 29.90 in 10.0 mi SW 19.6 mph 25.3 mph N/A   Clear
6:13 AM 34.7 °F 24.3 °F 26.6 °F 72% 29.90 in 10.0 mi SSW 17.3 mph - N/A   Clear
6:34 AM 33.3 °F 24.6 °F 26.2 °F 75% 29.90 in 10.0 mi SSW 11.5 mph - N/A   Clear
6:53 AM 32.4 °F 23.5 °F 26.1 °F 78% 29.89 in 10.0 mi SSW 11.5 mph - N/A   Clear
7:13 AM 32.0 °F 24.2 °F 26.1 °F 79% 29.88 in 10.0 mi South 9.2 mph - N/A   Clear
7:33 AM 32.0 °F 25.6 °F 26.1 °F 79% 29.87 in 10.0 mi South 6.9 mph - N/A   Clear
7:53 AM 32.5 °F 23.7 °F 26.2 °F 78% 29.86 in 10.0 mi SSW 11.5 mph - N/A   Clear
8:14 AM 32.9 °F 24.7 °F 26.2 °F 76% 29.86 in 10.0 mi SSW 10.4 mph - N/A   Clear
8:34 AM 33.3 °F 24.1 °F 26.4 °F 76% 29.86 in 10.0 mi SSW 12.7 mph - N/A   Clear
8:53 AM 33.8 °F 25.3 °F 26.8 °F 75% 29.86 in 10.0 mi SSW 11.5 mph - N/A   Clear
9:12 AM 34.7 °F 25.1 °F 27.3 °F 74% 29.86 in 10.0 mi SSW 15.0 mph - N/A   Clear
9:33 AM 37.9 °F 30.9 °F 28.0 °F 68% 29.86 in 10.0 mi SSW 10.4 mph - N/A   Clear
9:53 AM 40.5 °F 33.2 °F 28.0 °F 61% 29.85 in 10.0 mi SSW 12.7 mph - N/A   Clear
10:13 AM 42.8 °F 37.0 °F 28.4 °F 57% 29.85 in 10.0 mi SW 10.4 mph - N/A   Clear
10:33 AM 44.2 °F 38.0 °F 28.4 °F 54% 29.85 in 10.0 mi SSW 12.7 mph - N/A   Clear
10:53 AM 45.5 °F 41.3 °F 29.5 °F 54% 29.85 in 10.0 mi SSW 8.1 mph - N/A   Clear
11:13 AM 47.5 °F - 30.2 °F 51% 29.85 in 10.0 mi SW 12.7 mph - N/A   Clear
11:33 AM 50.0 °F - 30.4 °F 47% 29.83 in 10.0 mi SW 13.8 mph - N/A   Clear
11:53 AM 50.7 °F - 30.9 °F 47% 29.83 in 10.0 mi SW 13.8 mph - N/A   Clear
12:13 PM 51.1 °F - 31.3 °F 47% 29.83 in 10.0 mi SW 15.0 mph - N/A   Clear
12:34 PM 52.3 °F - 31.5 °F 45% 29.83 in 10.0 mi WSW 8.1 mph - N/A   Clear
12:52 PM 53.1 °F - 31.6 °F 44% 29.84 in 10.0 mi WNW 9.2 mph - N/A   Clear
1:14 PM 53.6 °F - 31.8 °F 44% 29.83 in 10.0 mi West 8.1 mph - N/A   Clear
1:33 PM 54.1 °F - 32.0 °F 43% 29.83 in 10.0 mi NW 5.8 mph - N/A   Clear
1:53 PM 55.4 °F - 31.8 °F 41% 29.83 in 10.0 mi NNW 6.9 mph - N/A   Clear
2:13 PM 56.7 °F - 32.0 °F 39% 29.83 in 10.0 mi NNE 4.6 mph - N/A   Clear
2:33 PM 58.3 °F - 31.5 °F 36% 29.83 in 10.0 mi NW 6.9 mph - N/A   Clear
2:53 PM 58.8 °F - 31.6 °F 36% 29.83 in 10.0 mi North 9.2 mph - N/A   Clear
3:13 PM 59.4 °F - 31.1 °F 34% 29.83 in 10.0 mi North 11.5 mph - N/A   Clear
3:33 PM 58.6 °F - 30.4 °F 34% 29.84 in 10.0 mi North 15.0 mph - N/A   Clear
3:53 PM 57.7 °F - 30.7 °F 36% 29.85 in 10.0 mi North 16.1 mph - N/A   Clear
4:13 PM 56.5 °F - 31.6 °F 39% 29.86 in 10.0 mi North 16.1 mph 20.7 mph N/A   Clear
4:34 PM 55.4 °F - 32.0 °F 41% 29.87 in 10.0 mi North 17.3 mph 20.7 mph N/A   Clear
4:53 PM 54.5 °F - 32.0 °F 42% 29.88 in 10.0 mi North 16.1 mph - N/A   Clear
5:13 PM 53.6 °F - 32.2 °F 44% 29.89 in 10.0 mi North 16.1 mph - N/A   Clear
5:33 PM 52.0 °F - 32.5 °F 48% 29.90 in 10.0 mi North 15.0 mph 20.7 mph N/A   Clear
5:54 PM 51.1 °F - 32.2 °F 48% 29.91 in 10.0 mi North 12.7 mph 20.7 mph N/A   Clear
6:13 PM 48.2 °F - 32.4 °F 54% 29.92 in 10.0 mi North 9.2 mph - N/A   Clear
6:34 PM 46.6 °F - 32.2 °F 57% 29.94 in 10.0 mi North 10.4 mph - N/A   Clear
6:53 PM 46.4 °F 41.1 °F 32.2 °F 58% 29.95 in 10.0 mi NNW 11.5 mph - N/A   Clear
7:13 PM 45.0 °F 39.3 °F 32.0 °F 60% 29.97 in 10.0 mi NNW 11.5 mph - N/A   Clear
7:33 PM 44.6 °F 38.1 °F 32.0 °F 61% 29.98 in 10.0 mi NNW 13.8 mph - N/A   Clear
7:53 PM 43.9 °F 36.8 °F 32.0 °F 63% 29.99 in 10.0 mi North 15.0 mph 23.0 mph N/A   Clear
8:12 PM 43.0 °F 35.1 °F 31.6 °F 64% 30.00 in 10.0 mi North 17.3 mph - N/A   Clear
8:33 PM 41.9 °F 34.6 °F 31.1 °F 66% 30.02 in 10.0 mi North 13.8 mph - N/A   Clear
8:53 PM 41.0 °F 33.1 °F 31.1 °F 68% 30.02 in 10.0 mi North 15.0 mph - N/A   Clear
9:14 PM 40.3 °F 32.2 °F 30.7 °F 69% 30.04 in 10.0 mi North 15.0 mph 18.4 mph N/A   Clear
9:33 PM 39.9 °F 32.1 °F 30.2 °F 68% 30.04 in 10.0 mi North 13.8 mph - N/A   Clear
9:53 PM 39.2 °F 31.2 °F 30.2 °F 70% 30.05 in 10.0 mi North 13.8 mph - N/A   Clear
10:13 PM 39.4 °F 31.8 °F 30.0 °F 69% 30.06 in 10.0 mi North 12.7 mph 17.3 mph N/A   Clear
10:33 PM 38.5 °F 30.7 °F 30.0 °F 72% 30.08 in 10.0 mi North 12.7 mph 17.3 mph N/A   Clear
10:53 PM 37.8 °F 29.8 °F 30.2 °F 74% 30.09 in 10.0 mi North 12.7 mph - N/A   Clear
11:13 PM 36.7 °F 29.4 °F 30.2 °F 77% 30.10 in 10.0 mi North 10.4 mph 17.3 mph N/A   Clear
11:34 PM 36.5 °F 29.2 °F 30.2 °F 78% 30.11 in 10.0 mi North 10.4 mph - N/A   Clear
11:52 PM 36.5 °F 29.7 °F 30.2 °F 78% 30.11 in 10.0 mi NNE 9.2 mph - N/A   Clear